Wind_Speed
95 96 96 96 97 97 98 98 98 99 99 99 98 98 97 97 96 96 96 95 95 95 94 94 93 92 91 90 89 88 87 86 84 83 83 82 81 80 79 78 77 77 76 75 75 74 74 74 73 73 73 73 73 73 73 73 73 74 74 74 74 75 75 75 74 74 73 73 72 71 70 68 66 64 62 60 58 56 53 52 50 49 48 48 48 48
96 96 97 97 97 98 98 99 99 99 99 99 99 99 99 98 98 97 97 96 95 95 94 92 91 90 89 88 87 86 85 84 83 82 81 80 79 78 77 76 75 74 74 73 73 72 72 72 71 71 71 71 71 71 71 71 71 71 71 71 71 71 71 71 70 70 69 68 67 66 65 63 61 59 57 55 53 52 50 49 48 48 48 48 48 48
98 98 98 98 98 99 99 100 100 100 100 100 100 100 99 99 99 98 97 96 95 94 92 91 90 89 87 86 85 84 83 82 81 80 79 78 77 76 75 74 73 72 71 71 70 70 70 69 69 69 69 69 68 68 68 68 68 68 67 67 67 67 67 66 66 65 64 63 62 61 59 58 56 54 53 51 50 49 49 48 48 48 48 48 48 49
100 100 100 99 100 100 100 101 101 101 101 101 100 100 99 99 98 97 96 95 93 92 91 89 88 87 86 85 84 83 81 80 79 78 77 76 74 73 72 71 70 70 69 68 68 67 67 67 67 66 66 66 66 65 65 65 64 64 64 64 63 63 63 62 62 61 60 59 58 56 55 54 52 51 50 49 49 48 48 48 49 49 49 49 49 49
101 101 101 101 101 101 102 102 102 102 101 101 100 100 99 98 97 96 94 93 92 91 89 88 87 86 84 83 82 81 80 78 77 76 74 73 72 71 70 69 68 67 66 66 65 65 65 64 64 64 63 63 63 62 62 62 61 61 60 60 60 59 59 58 58 57 56 55 54 53 52 51 50 49 49 49 49 49 49 49 49 49 50 50 50 50
103 103 103 102 102 102 102 102 102 102 101 101 100 98 97 96 95 94 93 91 90 89 88 87 85 84 83 82 81 79 78 77 75 74 72 71 70 69 68 67 66 65 64 64 63 63 62 62 61 61 61 60 60 60 59 59 58 58 57 57 56 56 56 55 55 54 53 52 52 51 50 50 49 49 49 49 49 49 50 50 50 50 51 51 51 51
104 104 104 103 103 102 102 102 101 101 100 100 99 97 96 95 93 92 91 90 89 88 87 85 84 83 82 81 79 78 76 75 74 72 71 70 68 67 66 65 64 63 63 62 61 61 60 60 59 59 59 58 58 57 57 56 56 55 55 54 54 54 54 53 53 52 52 51 51 51 50 50 50 50 50 50 50 50 51 51 51 52 52 52 52 53
105 104 104 103 103 102 101 100 100 99 99 98 97 96 95 94 92 91 90 89 88 87 86 84 83 82 81 79 78 77 75 74 73 71 70 69 68 66 65 64 64 63 62 61 61 60 59 59 58 58 58 57 57 56 55 55 54 54 54 53 53 53 53 52 52 52 52 51 51 51 51 51 51 51 51 51 51 52 52 52 52 53 53 53 53 54
105 104 103 102 101 101 100 99 98 97 97 97 96 95 94 93 92 91 89 88 87 86 85 84 82 81 80 78 77 76 74 73 72 71 70 69 68 66 65 65 64 63 62 61 61 60 59 59 58 58 58 57 56 56 55 55 54 54 54 53 53 53 53 53 53 53 52 52 52 52 52 52 52 52 52 53 53 53 53 54 54 54 54 54 55 55
104 103 102 101 100 99 99 98 97 96 96 95 95 94 94 93 92 91 89 88 87 85 84 83 82 81 80 78 77 76 74 73 72 71 70 69 68 67 66 66 65 64 63 62 62 61 60 60 59 59 58 58 57 57 56 56 55 55 55 54 54 54 54 54 54 54 54 54 54 54 54 54 54 54 54 54 54 55 55 55 55 56 56 56 56 56
103 102 101 100 99 98 98 97 96 95 94 94 94 94 93 92 91 90 89 88 87 85 84 83 82 81 80 79 77 76 75 74 73 72 71 70 69 69 68 67 66 65 65 64 63 63 62 62 61 61 60 59 59 59 58 57 57 57 56 56 56 56 56 56 56 56 56 56 56 56 56 56 56 56 56 56 56 56 57 57 57 57 57 57 57 58
102 101 100 100 99 98 97 96 95 94 94 94 94 94 93 92 90 89 89 88 87 86 85 83 82 81 80 79 78 77 76 76 75 74 73 72 71 70 70 69 68 67 67 66 65 65 64 64 63 63 62 62 61 61 60 60 59 59 59 58 58 58 58 58 58 58 58 58 58 59 59 58 58 58 58 58 58 58 58 58 59 59 59 59 59 59
101 101 100 99 98 98 97 96 95 94 94 94 94 94 93 92 90 89 88 88 87 86 85 84 83 82 81 80 79 78 78 77 77 76 75 74 73 73 72 71 70 70 69 68 68 67 67 66 66 65 65 64 64 64 63 63 62 62 61 61 61 60 60 60 60 61 61 61 61 61 61 61 61 60 60 60 60 60 60 60 60 60 60 60 60 60
101 100 100 99 98 97 97 96 95 95 94 94 93 93 93 92 91 90 89 88 87 86 86 85 85 84 83 82 81 80 80 79 79 78 77 77 76 75 74 74 73 72 71 71 70 70 69 69 68 68 68 67 67 66 66 65 65 64 64 63 63 63 63 63 63 63 63 63 63 63 63 63 63 63 62 62 62 62 62 62 62 62 62 61 61 61
101 100 100 99 98 97 97 96 96 95 94 94 93 93 93 92 92 91 90 90 89 88 87 87 86 85 84 84 83 82 82 81 81 81 80 79 78 77 77 76 75 74 74 73 73 73 72 71 71 71 70 70 70 69 69 68 68 67 66 66 66 65 65 65 65 65 65 65 65 65 65 65 65 65 64 64 64 64 64 64 63 63 63 63 63 63
102 101 100 99 99 98 97 97 96 96 95 95 94 94 94 94 93 93 92 91 91 90 89 89 88 87 87 86 85 84 84 84 83 83 82 82 81 80 79 78 78 77 76 76 76 75 75 74 74 74 73 73 72 72 71 71 70 70 69 69 68 68 67 67 67 67 67 67 67 67 67 67 67 67 66 66 66 66 66 65 65 65 65 64 64 64
103 102 102 101 100 100 99 98 98 98 97 96 96 95 95 95 95 94 94 93 93 92 92 91 90 89 89 88 87 86 86 86 86 85 84 84 83 82 81 81 80 80 79 79 78 78 78 77 77 77 76 76 75 75 74 73 72 72 71 71 70 70 70 70 70 70 69 69 69 69 69 69 69 69 68 68 68 67 67 67 67 66 66 66 66 65
105 104 104 103 102 102 101 100 100 100 99 99 98 98 97 97 96 96 96 95 95 95 94 93 92 92 91 91 90 89 88 88 88 88 87 86 85 84 83 83 82 82 82 81 81 81 81 80 80 80 79 79 78 77 76 76 75 74 74 73 73 72 72 72 72 72 71 71 71 71 71 71 71 71 70 70 69 69 69 68 68 68 67 67 67 67
108 107 106 106 105 105 104 103 103 103 102 102 101 100 100 99 99 98 98 98 98 97 97 96 95 94 93 93 92 91 90 91 91 90 89 89 88 86 85 85 85 84 84 84 84 84 83 83 83 82 82 81 81 80 79 78 77 77 76 75 75 75 74 74 74 74 74 73 73 73 73 73 72 72 72 72 71 71 70 70 69 69 69 68 68 68
111 110 110 109 109 108 107 107 106 106 105 105 104 103 103 102 101 101 101 100 100 100 99 98 98 97 96 95 95 94 93 93 93 93 92 91 90 88 87 87 87 87 87 86 86 86 86 86 86 85 84 84 83 82 81 80 80 79 78 78 77 77 76 76 76 76 75 75 75 75 75 74 74 74 74 73 73 72 72 71 71 70 70 69 69 69
115 114 113 112 112 111 111 110 109 109 108 108 107 107 106 105 104 104 103 103 102 102 101 101 100 99 98 97 97 96 95 95 95 95 95 93 92 91 89 89 89 89 89 89 89 88 88 88 88 87 87 86 85 84 84 83 82 81 81 80 79 79 78 78 78 78 77 77 77 77 76 76 76 75 75 75 74 74 73 73 72 72 71 71 70 70
117 117 116 115 114 114 114 113 112 112 111 111 110 110 109 108 107 106 106 105 105 104 104 103 103 101 100 100 99 98 97 97 97 97 97 96 95 93 92 91 91 91 91 91 91 90 90 90 90 89 89 88 87 86 86 85 84 83 83 82 81 81 80 80 80 79 79 79 78 78 78 77 77 77 77 76 76 75 75 74 73 73 72 72 71 71
119 118 118 117 116 116 116 115 114 114 113 113 112 112 111 110 109 109 108 107 107 106 106 105 105 104 103 102 101 100 100 99 99 99 98 98 97 96 94 93 93 94 94 94 93 92 92 92 91 91 90 90 89 88 88 87 86 85 84 84 83 83 82 82 81 81 81 80 80 80 79 79 79 78 78 78 77 77 76 75 75 74 74 73 73 72
119 119 118 118 117 117 117 116 116 115 115 114 114 113 112 111 111 110 109 108 108 108 107 107 106 106 105 104 103 102 102 101 100 100 100 100 99 98 96 95 95 96 96 96 95 94 94 93 93 92 91 91 91 90 89 88 87 87 86 85 85 84 84 83 83 83 82 82 81 81 81 80 80 80 79 79 79 78 77 77 76 75 75 74 74 73
120 119 119 118 118 118 117 117 117 116 116 115 115 114 113 112 111 111 110 109 109 109 108 108 108 107 106 105 104 104 103 102 101 101 101 101 100 99 98 97 97 98 98 97 96 95 95 95 94 93 93 92 92 91 90 90 89 88 87 87 86 86 85 85 85 84 84 83 83 82 82 82 81 81 81 80 80 79 79 78 78 77 76 76 75 74
121 120 119 119 119 118 118 118 118 117 116 116 115 115 114 113 113 112 111 111 110 110 109 109 109 108 107 105 105 105 104 103 102 102 102 102 101 100 99 98 98 99 99 99 98 97 96 96 95 94 94 94 93 93 92 91 90 89 89 88 88 87 87 86 86 86 85 85 84 84 83 83 83 82 82 82 81 81 80 80 79 78 78 77 76 76
121 121 120 120 119 119 119 119 118 118 117 117 117 116 115 115 114 114 114 113 112 111 110 110 110 109 107 106 106 106 105 104 103 103 103 102 102 101 100 99 99 100 101 100 99 98 98 97 96 96 95 95 95 94 93 92 92 91 90 89 89 88 88 88 87 87 87 86 86 85 85 85 84 84 83 83 83 82 82 81 80 80 79 78 77 77
121 121 120 120 120 119 119 119 119 119 118 118 118 117 117 116 116 116 116 114 113 112 112 112 111 110 109 108 107 106 105 105 105 104 104 103 104 103 102 100 100 101 102 102 101 100 99 98 98 97 97 96 96 95 95 94 93 92 92 91 90 90 89 89 89 88 88 88 87 87 86 86 86 85 85 84 84 83 83 82 82 81 80 79 79 78
121 121 120 120 120 119 119 119 119 119 119 119 119 119 118 117 118 118 117 116 115 115 115 114 112 111 110 109 108 108 107 107 106 105 105 105 106 105 103 102 102 103 104 104 103 102 101 100 99 98 98 98 97 97 96 96 95 94 93 93 92 91 91 90 90 90 90 89 89 88 88 87 87 87 86 86 85 85 84 84 83 82 81 81 80 79
121 120 120 120 119 119 119 119 119 119 119 119 120 119 119 118 118 118 118 117 117 117 116 115 114 112 111 111 110 110 109 108 107 106 106 107 108 107 105 104 104 105 105 105 105 104 103 102 101 100 99 99 99 99 98 97 97 96 95 94 94 93 93 92 92 91 91 91 90 90 89 89 88 88 87 87 86 86 85 85 84 83 83 82 81 80
120 120 120 119 119 119 119 119 119 119 119 119 120 120 120 119 119 119 119 118 118 118 118 116 115 114 113 112 112 112 111 110 108 107 107 109 110 109 108 107 107 106 106 106 106 106 105 104 102 101 101 101 100 100 100 99 99 98 97 96 96 95 94 94 93 93 93 92 92 91 91 90 90 89 89 88 88 87 87 86 85 85 84 83 82 81
119 119 119 119 118 118 119 119 119 119 119 119 119 120 120 119 119 119 119 119 119 118 118 117 116 115 114 113 113 113 112 111 109 108 108 110 112 111 109 109 109 108 107 107 107 107 107 106 105 103 102 102 102 102 102 101 101 100 99 98 98 97 96 95 95 94 94 93 93 93 92 92 91 90 90 89 89 88 88 87 87 86 85 84 83 82
117 117 117 117 117 117 117 118 118 118 118 118 119 119 119 119 119 119 119 119 119 118 118 117 116 115 114 113 113 113 112 112 110 109 109 111 112 112 111 110 110 110 109 108 108 108 108 107 106 105 105 104 104 103 103 103 102 102 101 100 99 99 98 97 96 96 95 95 94 94 93 93 92 91 91 90 90 89 89 88 88 87 86 85 84 83
114 114 114 114 115 115 115 115 116 116 117 117 117 118 118 118 118 118 118 118 117 117 117 116 116 115 114 113 113 112 112 112 111 110 110 111 113 113 112 111 111 111 110 110 109 109 108 108 107 107 107 106 105 105 104 104 104 103 102 102 101 100 99 99 98 97 97 96 96 95 95 94 93 93 92 91 91 91 90 89 89 88 87 86 85 84
110 110 111 111 111 112 112 112 113 113 114 114 115 115 116 116 116 116 116 116 116 115 115 114 114 114 113 113 112 112 112 111 111 110 110 111 113 113 113 113 112 111 111 111 111 110 110 109 108 108 108 108 107 106 106 105 105 104 104 103 102 102 101 100 99 99 98 97 97 96 96 95 94 94 93 92 92 91 91 90 90 89 88 87 86 85
106 106 106 107 107 107 108 108 109 110 110 111 112 112 113 113 113 113 113 113 113 113 113 112 112 112 111 111 111 112 112 111 110 110 110 111 112 113 114 113 113 112 112 112 112 111 110 110 109 109 109 109 109 108 107 106 106 105 105 104 104 103 102 101 100 100 99 99 98 98 97 96 95 95 94 93 93 92 92 91 90 90 89 87 86 85
101 102 102 102 103 103 104 104 105 105 106 107 107 108 108 109 109 110 110 110 110 111 111 111 110 110 110 110 110 110 111 110 110 110 110 111 112 112 113 114 113 112 112 113 112 112 111 111 111 110 110 110 110 110 109 107 107 106 106 105 105 104 103 102 101 101 100 100 99 99 98 97 96 96 95 94 94 93 92 92 91 90 89 88 87 86
97 98 98 98 98 99 100 100 100 101 101 102 102 103 103 104 105 105 106 107 107 108 108 108 108 108 108 108 108 108 109 109 109 110 110 110 111 111 112 113 112 112 112 112 112 112 112 112 112 112 111 111 110 110 109 108 108 107 107 106 105 105 104 103 102 102 101 101 100 100 99 98 97 96 96 95 94 94 93 92 92 91 90 89 88 87
94 94 94 94 95 95 95 96 96 96 97 97 98 98 99 100 100 101 102 103 103 104 105 105 105 105 105 105 106 106 106 107 107 108 108 109 109 110 111 111 112 111 111 111 111 111 112 112 112 112 111 111 110 110 109 109 108 108 107 106 106 105 105 104 103 103 102 102 101 101 100 99 98 97 96 96 95 94 94 93 92 91 90 89 88 87
90 90 91 91 91 92 92 92 92 93 93 93 94 94 95 96 96 97 98 98 99 100 100 101 101 102 102 102 102 103 103 103 104 105 105 106 107 107 108 109 109 109 109 109 110 110 111 111 111 111 111 111 111 110 110 109 109 108 108 107 107 107 106 105 104 103 103 102 102 101 100 99 98 98 97 96 96 95 94 94 93 92 91 90 89 88
86 87 87 88 88 88 89 89 89 89 90 90 90 91 91 92 92 93 93 94 94 95 96 96 97 97 98 98 98 98 99 99 100 101 101 102 103 103 104 105 106 106 107 107 108 108 109 110 110 110 110 110 110 110 110 110 109 108 108 108 108 107 106 105 105 104 103 103 102 102 101 100 99 98 98 97 96 95 95 94 93 92 91 90 89 88
83 83 84 84 85 85 85 86 86 86 86 87 87 88 88 88 88 89 89 90 90 90 91 92 92 93 93 93 93 94 94 95 95 96 97 98 98 99 100 101 102 103 104 105 106 106 107 107 108 108 109 109 109 109 110 110 109 108 108 108 107 107 106 106 105 104 104 103 103 102 101 100 100 99 98 97 97 96 95 94 94 93 92 91 90 89
79 80 81 81 82 82 82 83 83 83 84 84 84 84 84 85 85 85 85 86 86 86 87 87 88 88 89 89 89 89 90 90 91 92 93 94 94 95 96 97 98 99 100 101 102 103 104 104 105 106 106 106 107 108 109 109 108 108 108 107 107 107 107 106 105 104 104 103 103 102 101 101 100 99 98 98 97 96 95 95 94 93 92 91 90 89
76 76 77 78 78 79 79 80 80 80 81 81 81 81 81 81 81 82 82 82 82 82 83 83 83 84 84 85 85 85 85 86 87 88 89 89 90 91 91 92 94 94 96 97 98 99 100 101 102 103 103 104 104 105 106 107 107 107 106 106 105 106 106 106 104 104 104 103 103 102 101 101 100 99 98 98 97 96 96 95 94 93 92 92 90 89
72 73 74 75 75 76 76 76 77 77 77 77 78 78 78 78 78 78 78 78 79 79 79 80 80 80 81 81 81 81 82 82 83 84 85 85 86 86 87 88 89 90 91 92 93 95 96 97 98 99 99 100 101 102 103 104 104 105 105 104 104 104 104 103 103 103 104 103 103 102 101 100 100 99 99 98 97 97 96 95 94 94 93 92 91 89
69 70 70 71 71 72 72 72 73 73 73 74 74 75 75 75 75 75 75 75 75 76 76 76 76 77 77 77 77 78 79 79 80 80 81 81 82 82 83 84 85 86 87 87 89 90 91 93 94 95 95 96 98 99 100 100 101 102 102 101 101 101 101 101 102 102 102 102 101 101 100 100 99 99 99 98 97 97 96 95 94 94 93 92 91 90
66 66 67 67 68 68 68 69 69 69 70 70 71 71 72 72 72 72 72 72 72 73 73 73 73 73 74 74 74 75 76 76 76 77 77 77 78 79 79 80 81 81 82 83 84 85 87 88 89 90 91 92 94 94 95 96 97 98 99 98 98 98 99 99 99 99 100 100 100 100 99 99 99 99 98 98 97 96 95 95 94 94 93 92 91 90
63 63 64 64 64 64 65 65 66 66 67 67 68 68 69 69 69 69 69 69 69 69 69 70 70 70 70 71 71 72 72 73 73 73 74 74 75 75 76 76 77 77 78 79 80 81 82 84 85 86 87 88 89 90 91 92 93 94 95 95 95 95 95 96 96 96 97 97 98 98 98 98 98 98 97 96 96 96 95 94 94 93 93 92 91 90
60 60 60 61 61 61 62 62 62 63 64 64 65 65 66 66 66 66 66 66 66 66 66 66 67 67 67 68 68 69 69 70 70 70 71 71 72 72 73 73 73 74 74 75 76 77 79 80 81 82 83 84 85 86 86 87 88 90 90 91 91 91 92 92 92 93 94 94 95 95 95 96 96 95 95 95 95 95 94 94 93 93 92 91 91 90
57 57 57 58 58 58 59 59 60 60 61 61 62 62 63 63 63 63 63 63 63 63 63 63 63 64 64 64 65 65 66 66 67 67 68 68 68 69 69 70 70 70 71 72 73 74 75 76 77 78 78 79 80 81 82 83 84 85 86 87 87 87 88 88 89 89 90 91 92 92 93 93 93 93 93 94 94 93 93 93 92 92 92 91 90 89
54 54 55 55 55 56 56 57 57 58 58 59 59 59 60 60 60 60 60 60 60 60 60 60 61 61 61 62 62 62 63 63 64 64 65 65 65 66 66 67 67 67 68 69 70 70 71 72 73 74 74 75 76 77 78 79 80 81 82 83 83 83 84 84 85 85 86 87 88 89 90 90 90 90 91 91 91 91 91 91 91 91 90 90 89 89
Wind_Direction
280 280 281 281 281 281 281 281 281 282 282 282 282 282 282 282 282 282 282 282 282 282 282 282 282 282 281 281 281 281 281 281 280 280 280 280 280 279 279 279 279 278 278 278 277 277 277 277 276 276 276 275 275 275 275 274 274 274 275 275 275 275 276 276 277 277 277 278 278 279 279 279 280 280 280 280 280 280 280 280 280 280 281 282 283 284
280 280 280 280 281 281 281 281 281 281 281 281 282 282 282 282 282 282 282 282 282 282 282 282 282 282 282 281 281 281 281 281 281 280 280 280 280 280 279 279 279 279 278 278 278 277 277 277 277 276 276 276 276 275 275 275 275 275 275 275 275 275 276 276 276 277 277 277 278 278 278 278 279 279 279 279 279 278 278 279 279 280 281 282 283 284
280 280 280 280 280 280 280 280 280 281 281 281 281 281 282 282 282 282 282 282 282 282 282 282 282 282 282 282 281 281 281 281 281 281 281 280 280 280 280 280 279 279 279 278 278 278 277 277 277 277 276 276 276 276 276 276 275 275 275 275 276 276 276 276 276 276 276 277 277 277 277 277 277 277 277 277 277 278 278 278 279 280 281 283 284 285
280 280 280 280 280 280 280 280 280 281 281 281 281 281 282 282 282 282 282 282 282 282 282 282 282 282 282 282 282 281 281 281 281 281 281 281 281 280 280 280 280 279 279 279 278 278 278 277 277 277 277 276 276 276 276 276 276 276 276 276 276 276 276 276 276 276 276 276 276 276 276 276 276 276 276 277 277 277 278 279 280 281 282 283 284 285
280 280 280 280 280 280 280 280 281 281 281 281 281 281 281 282 282 282 282 282 282 282 282 282 282 282 282 282 282 282 281 281 281 281 281 281 281 281 280 280 280 280 279 279 279 278 278 278 277 277 277 277 276 276 276 276 276 276 276 275 275 275 275 275 275 275 275 275 275 275 275 275 275 276 276 276 277 278 279 280 281 282 283 284 285 286
280 280 280 280 280 280 280 280 281 281 281 281 281 281 281 281 282 282 282 282 282 282 282 282 282 282 282 282 282 282 281 281 281 281 281 281 281 281 280 280 280 280 279 279 279 278 278 278 278 277 277 277 277 276 276 276 276 276 275 275 275 275 274 274 274 274 274 274 274 274 274 275 275 276 276 277 278 279 279 280 281 282 283 284 285 286
280 280 280 280 280 280 280 280 280 281 281 281 281 281 281 281 281 281 282 282 282 282 282 282 282 282 282 281 281 281 281 281 281 281 281 281 281 280 280 280 280 279 279 279 278 278 278 278 277 277 277 277 276 276 276 276 275 275 275 274 274 274 274 273 274 273 273 274 274 274 274 275 275 276 277 278 278 279 280 281 282 282 283 284 285 285
280 280 280 280 280 280 280 280 280 280 281 281 281 281 281 281 281 281 281 281 281 281 281 281 281 281 281 281 281 281 281 281 281 281 281 281 280 280 280 280 279 279 279 278 278 278 278 277 277 277 277 276 276 276 276 275 275 275 274 274 274 274 273 273 273 273 274 274 274 274 275 275 276 276 277 278 279 279 280 281 282 282 283 284 284 285
280 280 280 280 280 280 280 280 280 280 280 280 280 281 281 281 281 281 281 281 281 280 280 280 280 280 280 280 280 281 281 281 281 281 280 280 280 280 280 279 279 279 278 278 278 278 277 277 277 276 276 276 276 276 275 275 275 274 274 274 273 273 274 274 274 274 274 274 275 275 276 276 276 277 278 278 279 280 280 281 282 282 283 283 284 284
279 279 279 279 279 279 279 279 279 279 279 280 280 280 280 280 280 280 280 280 280 280 280 280 280 280 280 280 280 280 280 280 280 280 280 280 279 279 279 279 279 278 278 278 278 277 277 277 277 276 276 276 276 275 275 275 275 274 274 274 274 274 274 274 274 274 275 275 275 276 276 277 277 277 278 279 279 280 280 281 281 282 282 283 283 284
279 279 279 279 279 279 279 279 279 279 279 279 279 279 279 279 279 279 279 279 279 279 279 279 279 279 279 279 279 279 279 279 279 279 279 279 279 279 278 278 278 278 278 278 277 277 277 277 276 276 276 276 275 275 275 275 275 274 274 274 274 274 274 275 275 275 275 276 276 276 277 277 277 278 278 279 279 280 280 281 281 282 282 283 283 284
278 278 278 278 278 278 278 278 278 278 278 278 278 278 278 278 278 278 278 278 278 278 278 278 278 278 278 278 278 278 278 278 278 278 278 278 278 278 277 277 277 277 277 277 277 277 277 276 276 276 276 276 275 275 275 275 275 275 275 275 275 275 275 275 275 276 276 276 277 277 277 278 278 278 279 279 280 280 280 281 281 282 282 283 283 284
278 278 278 278 278 278 277 277 277 277 277 277 277 277 277 277 277 277 277 277 277 277 277 277 277 277 277 277 277 277 277 277 277 277 277 277 277 277 276 276 276 276 276 276 276 276 276 276 276 276 275 275 275 275 275 275 275 275 275 275 275 275 275 275 276 276 276 277 277 277 278 278 278 279 279 279 280 280 281 281 281 282 282 283 283 284
277 277 277 277 277 277 277 276 276 276 276 276 275 276 276 276 276 276 276 276 275 275 275 275 275 275 275 275 275 275 275 275 275 276 276 276 275 275 275 275 275 275 276 275 275 275 275 275 275 275 275 274 274 274 274 274 274 274 274 275 275 275 275 275 276 276 276 277 277 277 278 278 278 279 279 279 280 280 281 281 282 282 283 283 284 284
277 277 277 276 276 276 276 276 275 275 275 275 275 275 275 275 275 275 275 275 275 274 274 274 274 274 274 274 274 274 274 274 274 274 274 274 274 275 275 275 275 275 275 275 274 274 274 274 274 274 274 273 273 273 273 273 274 274 274 274 274 275 275 275 275 276 276 276 277 277 277 278 278 279 279 279 280 280 281 281 282 282 283 283 284 284
277 277 276 276 276 276 275 275 275 275 274 274 274 274 274 274 274 274 274 274 274 274 273 273 273 273 273 273 273 273 273 273 273 273 273 273 274 274 274 274 274 274 274 274 274 274 273 273 273 273 273 273 272 272 273 273 273 273 273 274 274 274 274 275 275 275 275 276 276 277 277 278 278 278 279 279 280 280 281 281 282 282 283 284 284 285
277 276 276 276 276 275 275 275 274 274 274 274 273 273 273 273 273 273 273 273 273 273 273 273 272 272 272 273 273 273 272 272 272 272 272 272 273 273 273 273 273 273 273 273 273 273 273 273 272 272 272 272 272 272 272 272 272 273 273 273 273 274 274 274 274 275 275 275 276 276 277 277 278 278 279 279 280 280 281 281 282 283 283 284 284 285
276 276 276 275 275 275 275 274 274 274 273 273 273 273 272 272 272 272 272 272 272 272 272 272 272 272 272 272 272 272 272 272 272 272 272 272 272 272 273 272 273 273 273 273 272 272 272 272 272 272 272 272 272 272 272 272 272 272 273 273 273 273 274 274 274 275 275 275 276 276 277 277 278 278 279 279 280 280 281 281 282 283 283 284 285 285
276 275 275 275 274 274 274 274 273 273 273 273 272 272 272 272 272 272 272 272 271 271 271 271 271 271 271 271 271 271 271 271 271 271 271 271 271 272 272 272 272 272 272 272 272 272 272 272 271 272 272 272 272 272 272 272 272 273 273 273 273 273 274 274 274 275 275 275 276 276 277 277 278 278 279 279 280 280 281 282 282 283 283 284 285 285
275 275 274 274 274 274 273 273 273 273 272 272 272 272 272 271 271 271 271 271 271 271 271 271 271 271 271 270 271 271 271 271 271 271 271 271 271 271 271 271 271 271 271 271 271 271 271 271 271 271 272 272 272 272 272 272 273 273 273 273 273 274 274 274 274 275 275 275 276 276 277 277 278 278 279 279 280 280 281 282 282 283 283 284 285 285
274 274 274 274 273 273 273 273 272 272 272 272 272 271 271 271 271 271 270 270 270 270 270 270 270 270 270 270 270 270 270 270 270 270 271 271 271 271 270 270 270 270 270 270 270 270 270 271 271 271 271 272 272 272 272 273 273 273 273 273 273 274 274 274 274 275 275 275 276 276 277 277 278 278 279 279 280 280 281 281 282 283 283 284 284 285
274 274 274 274 273 273 273 272 272 272 272 272 271 271 271 271 271 270 270 270 270 270 270 270 270 270 270 270 270 270 270 270 270 270 270 270 270 270 270 270 270 270 270 270 270 270 270 270 270 271 271 271 272 272 272 272 272 273 273 273 273 274 274 274 274 275 275 275 276 276 276 277 277 278 278 279 279 280 281 281 282 282 283 283 284 284
274 274 274 274 273 273 273 273 272 272 272 272 271 271 271 271 271 270 270 270 270 270 270 270 270 270 270 270 270 270 270 269 269 269 270 270 270 270 270 270 270 269 269 269 269 269 270 270 270 270 271 271 271 271 272 272 272 272 272 273 273 273 273 274 274 274 274 275 275 276 276 277 277 277 278 278 279 280 280 281 281 282 282 283 283 284
274 274 274 274 273 273 273 273 272 272 272 272 272 272 271 271 271 271 270 270 270 270 270 270 270 270 270 269 269 269 269 269 269 269 269 269 269 269 270 269 269 269 269 269 269 269 269 269 270 270 270 270 271 271 271 271 271 272 272 272 272 273 273 273 273 274 274 274 275 275 276 276 276 277 277 278 278 279 279 280 280 281 281 282 282 283
274 274 274 274 273 273 273 273 273 272 272 272 272 272 272 272 271 271 271 271 270 270 270 270 270 269 269 269 269 269 269 269 269 269 269 269 269 269 269 269 269 269 269 269 269 269 269 269 269 269 270 270 270 270 270 271 271 271 271 271 272 272 272 273 273 273 273 274 274 275 275 275 276 276 277 277 278 278 279 279 280 280 281 281 282 282
274 274 274 273 273 273 273 273 273 272 272 272 272 272 272 272 272 271 271 271 270 270 270 270 270 269 269 269 269 269 269 269 269 269 269 269 269 269 269 269 269 269 269 269 269 269 269 269 269 269 269 269 269 270 270 270 270 270 270 271 271 271 272 272 272 272 273 273 274 274 274 275 275 276 276 277 277 277 278 278 279 279 280 280 281 281
274 274 273 273 273 273 273 272 272 272 272 272 272 272 272 272 272 271 271 271 271 270 270 270 270 269 269 269 269 269 269 269 269 269 269 269 269 269 269 268 268 268 268 269 269 269 269 269 269 269 269 269 269 269 269 269 270 270 270 270 270 271 271 271 271 272 272 272 273 273 274 274 274 275 275 276 276 277 277 278 278 279 279 279 280 280
273 273 273 273 273 272 272 272 272 272 272 272 272 271 271 271 271 271 271 271 271 270 270 270 270 269 269 269 269 269 269 269 269 268 269 269 269 269 268 268 268 268 268 268 268 268 268 268 268 268 269 269 269 269 269 269 269 269 269 270 270 270 270 270 271 271 271 272 272 273 273 273 274 274 274 275 275 276 276 277 277 278 278 279 279 279
273 273 273 272 272 272 272 272 272 271 271 271 271 271 271 271 271 271 271 270 270 270 270 270 270 269 269 269 269 269 269 268 268 268 268 269 269 268 268 268 267 267 267 268 268 268 268 268 268 268 268 268 268 269 269 269 269 269 269 269 269 269 270 270 270 270 271 271 271 272 272 272 273 273 274 274 275 275 276 276 276 277 277 278 278 278
273 272 272 272 272 271 271 271 271 271 271 271 270 270 270 270 270 270 270 270 270 270 270 269 269 269 269 269 269 269 269 268 268 268 268 268 268 268 268 268 267 267 267 267 268 268 268 268 268 268 268 268 268 268 268 268 269 269 269 269 269 269 269 269 269 270 270 270 271 271 271 272 272 273 273 273 274 274 275 275 276 276 276 277 277 277
272 272 272 271 271 271 271 270 270 270 270 270 270 270 270 269 269 269 269 269 269 269 269 269 269 269 269 268 268 268 268 268 268 267 268 268 268 268 268 268 267 267 267 267 267 267 267 268 268 268 268 268 268 268 268 268 268 268 268 268 268 268 269 269 269 269 269 270 270 270 271 271 271 272 272 273 273 273 274 274 275 275 275 276 276 276
271 271 271 271 270 270 270 270 269 269 269 269 269 269 269 269 268 268 268 268 268 268 268 268 268 268 268 268 268 268 268 268 267 267 267 267 267 267 267 267 267 267 267 267 267 267 267 267 268 268 267 267 267 267 267 268 268 268 268 268 268 268 268 268 268 268 269 269 269 269 270 270 271 271 271 272 272 272 273 273 274 274 274 275 275 276
271 270 270 270 270 269 269 269 269 268 268 268 268 268 268 268 268 267 267 267 267 267 267 267 267 267 267 267 267 267 267 267 267 267 266 267 267 267 267 267 267 267 267 267 267 267 267 267 267 267 267 267 267 267 267 267 267 267 267 267 267 268 268 268 268 268 268 268 269 269 269 269 270 270 270 271 271 272 272 272 273 273 273 274 274 275
270 270 269 269 269 268 268 268 268 267 267 267 267 267 267 267 266 266 266 266 266 266 266 266 266 266 266 266 266 266 266 266 266 266 266 266 266 267 267 267 267 267 267 267 267 267 267 267 267 267 267 267 267 267 267 267 267 267 267 267 267 267 267 267 267 267 268 268 268 268 268 269 269 269 270 270 270 271 271 271 272 272 273 273 273 274
269 269 269 268 268 268 267 267 267 267 266 266 266 266 266 265 265 265 265 265 265 265 265 265 265 265 265 265 266 266 266 265 265 265 265 265 266 266 266 266 266 266 266 266 266 266 266 266 267 267 267 267 266 266 266 266 266 266 266 266 267 267 267 267 267 267 267 267 267 268 268 268 268 269 269 269 269 270 270 270 271 271 272 272 273 273
269 269 268 268 268 267 267 267 266 266 266 265 265 265 265 264 264 264 264 264 264 264 264 264 264 264 264 264 265 265 265 264 264 264 264 264 265 265 265 265 265 265 265 266 266 266 266 266 266 266 266 266 266 266 266 265 266 266 266 266 266 266 266 266 266 267 267 267 267 267 267 267 268 268 268 268 268 269 269 270 270 270 271 271 272 272
269 268 268 268 267 267 266 266 266 265 265 265 264 264 264 264 264 264 264 264 264 264 264 264 263 263 263 263 263 263 263 263 263 263 263 263 263 263 264 264 264 264 264 264 265 265 265 265 265 265 265 265 265 265 265 265 265 265 265 265 265 265 266 266 266 266 266 266 266 266 267 267 267 267 267 267 268 268 268 269 269 270 270 270 271 271
269 268 268 267 267 266 266 266 265 265 265 264 264 264 264 263 263 263 263 263 263 263 263 263 262 262 262 262 262 261 261 261 262 262 261 261 261 262 262 262 262 262 263 263 263 263 264 264 264 264 264 264 264 264 264 264 264 264 264 264 265 265 265 265 265 265 265 265 265 266 266 266 266 266 266 267 267 267 268 268 268 269 269 269 270 270
268 268 267 267 267 266 266 265 265 265 264 264 264 264 263 263 263 262 262 262 262 262 262 261 261 261 261 261 260 260 260 260 260 260 260 260 260 260 260 261 261 261 261 261 262 262 262 262 262 263 263 263 263 263 263 263 263 263 263 264 264 264 264 264 264 264 264 264 265 265 265 265 265 265 266 266 266 266 267 267 267 268 268 268 269 269
268 267 267 267 266 266 266 265 265 265 264 264 264 263 263 262 262 262 261 261 261 261 260 260 260 260 260 259 259 259 259 258 258 258 258 258 258 258 259 259 259 259 260 260 260 260 261 261 261 261 262 262 262 262 262 262 262 262 262 263 263 263 263 263 263 263 263 263 264 264 264 264 264 265 265 265 265 266 266 266 266 267 267 267 268 268
267 267 267 266 266 266 265 265 265 264 264 263 263 263 262 262 261 261 261 260 260 260 260 260 259 259 259 259 258 258 258 258 257 257 257 257 257 257 257 257 258 258 258 258 259 259 259 259 260 260 260 260 261 261 261 261 261 261 261 262 262 262 262 262 262 262 262 262 263 263 263 263 263 264 264 264 264 265 265 265 266 266 266 266 267 267
267 266 266 266 265 265 265 264 264 264 263 263 263 262 262 261 261 261 260 260 260 260 259 259 259 259 259 258 258 258 257 257 257 257 257 256 256 256 256 256 256 256 257 257 257 257 257 258 258 258 259 259 259 259 260 260 260 260 260 260 260 260 261 261 261 261 261 261 261 262 262 262 262 263 263 263 263 264 264 264 265 265 265 265 266 266
266 266 266 265 265 265 264 264 264 263 263 263 262 262 262 261 261 261 260 260 260 260 259 259 259 259 259 258 258 258 257 257 257 256 256 256 256 256 255 255 255 255 255 255 255 256 256 256 256 256 257 257 257 258 258 258 258 258 258 258 259 259 259 259 259 260 260 260 260 261 261 261 261 261 262 262 262 263 263 263 263 264 264 264 265 265
267 266 266 265 265 265 264 264 264 263 263 263 262 262 262 262 261 261 261 260 260 260 260 259 259 259 259 258 258 258 257 257 256 256 256 255 255 255 254 254 254 254 253 254 254 254 254 254 254 255 255 255 255 256 256 256 257 257 257 257 257 257 258 258 258 259 259 259 259 259 260 260 260 260 260 261 261 261 262 262 262 263 263 263 264 264
267 266 266 265 265 265 264 264 264 264 264 263 263 263 262 262 262 261 261 261 260 260 260 259 259 259 258 258 258 257 257 257 256 256 255 255 254 254 254 253 253 253 252 252 252 252 252 253 253 253 253 253 253 254 254 254 255 255 255 255 255 256 256 256 257 257 257 257 258 258 258 258 259 259 259 259 260 260 260 261 261 261 262 262 262 263
267 267 266 266 266 265 265 265 265 265 264 264 264 263 263 263 262 262 261 261 260 260 259 259 259 258 258 258 257 257 257 256 256 255 255 254 254 253 253 252 252 252 251 251 251 251 251 251 251 251 251 252 252 252 252 253 253 253 254 254 254 254 254 255 255 255 256 256 256 257 257 257 257 258 258 258 258 259 259 259 260 260 261 261 261 262
268 267 267 267 266 266 266 266 265 265 264 264 264 263 263 263 262 261 261 260 260 260 259 259 258 258 258 257 257 256 256 255 255 255 254 254 253 253 252 252 251 251 251 250 250 250 250 250 250 250 250 250 250 250 250 251 251 252 252 252 253 253 253 253 253 254 254 254 255 255 255 256 256 256 257 257 257 258 258 258 259 259 259 260 260 260
268 268 267 267 267 266 266 266 265 265 264 264 263 263 263 262 262 261 261 260 260 259 259 258 258 257 257 257 256 256 255 255 255 254 254 253 253 252 252 251 251 250 250 249 249 249 249 249 249 249 249 249 249 249 249 250 250 250 251 251 251 251 252 252 252 252 252 253 253 254 254 254 255 255 255 255 256 256 256 257 257 258 258 258 259 259
269 268 268 267 267 266 266 265 265 264 264 263 263 263 262 262 261 261 261 260 260 259 259 258 258 257 257 256 256 255 255 255 254 254 253 253 252 252 251 251 250 250 249 249 248 248 248 248 248 247 247 248 248 248 248 248 248 249 249 249 250 250 250 250 250 251 251 251 252 252 252 253 253 253 254 254 254 255 255 255 256 256 257 257 257 258
270 269 268 268 267 266 266 265 264 264 263 263 263 262 262 261 261 261 260 260 259 259 258 258 257 257 256 256 255 255 254 254 253 253 253 252 252 251 251 250 249 249 249 248 247 247 247 247 247 246 246 246 246 247 247 247 247 247 248 248 248 248 248 249 249 249 249 250 250 250 251 251 251 252 252 252 253 253 253 254 254 255 255 255 256 256
270 270 269 268 267 266 266 265 264 264 263 263 262 262 261 261 261 260 260 260 259 258 258 257 256 256 255 255 254 254 253 253 253 252 252 251 251 250 250 249 249 248 248 247 247 246 246 246 246 246 246 246 245 246 246 246 246 246 246 247 247 247 247 247 247 247 248 248 248 249 249 249 250 250 250 251 251 252 252 252 253 253 253 254 254 255
Height
10502 10501 10500 10498 10496 10494 10492 10490 10489 10487 10486 10485 10486 10486 10486 10487 10488 10489 10489 10489 10488 10487 10487 10487 10486 10486 10486 10486 10486 10486 10486 10486 10486 10486 10486 10486 10486 10486 10486 10487 10487 10487 10487 10487 10487 10487 10487 10487 10487 10488 10488 10489 10489 10489 10489 10489 10489 10490 10490 10490 10490 10490 10489 10489 10489 10489 10489 10489 10489 10489 10489 10488 10488 10488 10489 10489 10489 10489 10489 10489 10489 10489 10489 10489 10489 10489
10494 10494 10492 10491 10490 10488 10485 10483 10482 10481 10480 10479 10478 10479 10479 10479 10479 10479 10480 10480 10480 10480 10479 10479 10479 10478 10478 10477 10477 10477 10477 10477 10478 10478 10479 10479 10479 10479 10479 10479 10480 10480 10480 10480 10480 10481 10481 10481 10481 10481 10481 10482 10482 10482 10482 10483 10483 10484 10484 10484 10484 10484 10484 10484 10484 10484 10484 10484 10484 10483 10483 10483 10484 10484 10484 10484 10484 10484 10484 10484 10484 10485 10485 10485 10485 10484
10486 10486 10484 10483 10482 10481 10478 10476 10474 10474 10473 10472 10472 10471 10471 10471 10471 10471 10471 10471 10471 10471 10472 10471 10471 10471 10471 10470 10470 10470 10470 10471 10471 10471 10471 10472 10472 10472 10472 10472 10473 10473 10473 10473 10473 10474 10474 10474 10474 10474 10474 10475 10475 10476 10476 10477 10477 10477 10477 10478 10478 10478 10478 10478 10478 10478 10478 10478 10478 10478 10479 10479 10479 10479 10479 10479 10480 10480 10480 10480 10481 10481 10481 10481 10481 10481
10478 10477 10476 10475 10474 10473 10471 10469 10467 10466 10466 10465 10464 10464 10464 10464 10464 10463 10463 10464 10464 10464 10464 10464 10464 10463 10463 10463 10463 10463 10463 10463 10464 10464 10464 10465 10465 10466 10466 10466 10466 10466 10466 10466 10467 10467 10467 10467 10467 10467 10468 10468 10469 10469 10470 10471 10471 10471 10472 10472 10472 10472 10472 10472 10472 10472 10473 10473 10473 10473 10474 10474 10474 10475 10475 10475 10476 10476 10476 10476 10476 10476 10476 10476 10476 10476
10469 10468 10467 10467 10467 10466 10463 10461 10460 10459 10458 10457 10457 10457 10457 10457 10456 10456 10456 10456 10456 10456 10456 10456 10456 10456 10456 10456 10456 10456 10456 10457 10457 10457 10458 10459 10459 10459 10459 10459 10460 10460 10460 10460 10461 10461 10461 10461 10461 10461 10462 10462 10463 10464 10464 10465 10466 10466 10466 10466 10467 10467 10467 10467 10467 10467 10468 10468 10468 10469 10469 10469 10470 10471 10471 10471 10471 10471 10471 10472 10472 10472 10472 10472 10472 10472
10459 10459 10459 10459 10459 10457 10456 10454 10452 10451 10451 10449 10449 10449 10449 10449 10449 10449 10449 10449 10449 10449 10449 10449 10449 10449 10449 10449 10449 10449 10449 10450 10451 10451 10452 10452 10452 10453 10453 10454 10454 10454 10454 10454 10454 10455 10455 10455 10456 10456 10456 10457 10457 10458 10459 10459 10460 10461 10461 10461 10461 10462 10462 10462 10462 10463 10463 10464 10464 10464 10465 10465 10466 10466 10466 10467 10467 10467 10467 10467 10467 10467 10467 10467 10467 10467
10450 10450 10450 10450 10449 10449 10448 10447 10446 10444 10442 10441 10440 10440 10441 10441 10442 10442 10442 10442 10442 10442 10442 10442 10442 10442 10442 10442 10442 10442 10443 10444 10444 10445 10446 10446 10447 10447 10447 10447 10448 10448 10449 10449 10449 10449 10450 10450 10451 10451 10451 10452 10452 10453 10454 10454 10455 10456 10456 10456 10457 10457 10457 10457 10458 10458 10459 10459 10459 10460 10460 10461 10461 10462 10462 10462 10462 10462 10463 10463 10463 10463 10464 10464 10463 10463
10441 10441 10441 10441 10441 10440 10439 10439 10438 10437 10436 10434 10432 10432 10432 10433 10434 10434 10434 10434 10434 10435 10435 10434 10435 10435 10435 10436 10436 10436 10437 10438 10438 10439 10439 10440 10441 10441 10441 10442 10442 10442 10443 10444 10444 10444 10444 10445 10446 10446 10446 10447 10447 10448 10449 10450 10451 10451 10451 10452 10452 10452 10452 10453 10453 10454 10454 10454 10455 10455 10456 10456 10457 10457 10457 10458 10458 10458 10459 10459 10459 10459 10459 10459 10459 10459
10432 10431 10431 10431 10432 10432 10431 10431 10430 10429 10429 10427 10425 10425 10425 10425 10426 10426 10426 10426 10427 10427 10428 10428 10428 10428 10429 10429 10430 10431 10431 10432 10432 10433 10434 10434 10434 10435 10436 10436 10436 10437 10437 10438 10439 10439 10439 10440 10441 10441 10441 10442 10442 10443 10444 10445 10446 10446 10446 10447 10447 10447 10448 10448 10449 10449 10449 10450 10450 10451 10451 10452 10452 10453 10453 10454 10454 10454 10454 10454 10454 10455 10455 10455 10455 10455
10422 10422 10422 10422 10422 10423 10423 10422 10422 10422 10422 10419 10417 10417 10417 10418 10418 10418 10419 10419 10419 10420 10421 10421 10422 10422 10422 10423 10424 10425 10426 10426 10426 10427 10427 10428 10429 10429 10430 10431 10431 10431 10432 10432 10433 10433 10434 10434 10435 10436 10436 10437 10437 10438 10439 10440 10441 10441 10442 10442 10442 10443 10443 10444 10444 10444 10445 10445 10446 10446 10446 10447 10447 10448 10449 10449 10449 10449 10449 10450 10450 10451 10451 10451 10451 10450
10413 10413 10414 10413 10414 10414 10415 10414 10414 10414 10414 10412 10411 10409 10409 10410 10411 10411 10412 10412 10412 10413 10414 10414 10415 10416 10416 10417 10418 10419 10419 10420 10420 10421 10422 10422 10423 10424 10424 10424 10425 10426 10426 10427 10427 10428 10428 10429 10429 10430 10431 10432 10432 10433 10434 10434 10435 10436 10436 10437 10437 10438 10438 10439 10439 10439 10440 10440 10441 10441 10441 10442 10442 10443 10444 10444 10444 10445 10445 10446 10446 10446 10446 10446 10446 10446
10404 10404 10404 10404 10405 10405 10406 10406 10406 10406 10407 10406 10404 10402 10401 10401 10403 10404 10405 10406 10406 10407 10407 10407 10408 10409 10410 10411 10412 10412 10414 10414 10414 10414 10416 10416 10417 10418 10418 10419 10419 10420 10421 10422 10422 10422 10423 10423 10424 10425 10426 10426 10427 10427 10428 10429 10429 10431 10431 10432 10432 10433 10433 10434 10434 10434 10435 10435 10436 10436 10436 10437 10437 10438 10439 10439 10439 10440 10441 10441 10441 10441 10441 10441 10441 10441
10395 10396 10396 10396 10396 10397 10397 10397 10397 10398 10398 10397 10396 10395 10394 10394 10395 10397 10398 10399 10399 10400 10401 10401 10401 10402 10404 10405 10406 10407 10407 10407 10407 10408 10409 10410 10411 10412 10412 10413 10414 10415 10416 10416 10417 10417 10417 10418 10419 10419 10420 10421 10421 10422 10422 10423 10424 10425 10426 10426 10427 10428 10428 10429 10429 10429 10429 10430 10430 10431 10431 10432 10432 10433 10434 10434 10434 10435 10436 10436 10436 10436 10436 10436 10436 10436
10386 10386 10387 10387 10387 10388 10389 10389 10389 10389 10390 10389 10389 10388 10387 10387 10387 10389 10390 10391 10392 10393 10394 10394 10394 10396 10397 10398 10399 10401 10401 10401 10401 10402 10403 10404 10404 10406 10407 10407 10408 10409 10411 10411 10411 10411 10412 10412 10413 10414 10414 10415 10416 10416 10417 10417 10419 10419 10420 10421 10422 10422 10423 10424 10424 10424 10424 10425 10425 10426 10426 10426 10427 10427 10428 10429 10429 10430 10430 10431 10431 10431 10431 10432 10432 10431
10376 10377 10378 10378 10379 10379 10380 10380 10381 10381 10381 10381 10381 10381 10380 10380 10380 10381 10382 10383 10384 10385 10387 10387 10388 10389 10391 10391 10392 10394 10394 10395 10395 10396 10396 10397 10398 10399 10401 10401 10402 10403 10404 10405 10405 10406 10406 10407 10407 10407 10409 10409 10410 10411 10411 10412 10413 10414 10415 10416 10417 10417 10418 10418 10419 10419 10419 10420 10420 10420 10421 10421 10422 10422 10423 10424 10424 10424 10425 10426 10426 10426 10426 10426 10427 10427
10366 10368 10369 10369 10369 10371 10371 10372 10372 10372 10372 10373 10373 10373 10373 10372 10372 10373 10374 10375 10376 10377 10379 10380 10381 10382 10383 10384 10386 10387 10387 10388 10388 10389 10389 10390 10391 10393 10395 10396 10396 10396 10398 10399 10399 10399 10400 10401 10401 10402 10402 10403 10404 10404 10406 10406 10407 10408 10409 10410 10411 10412 10412 10413 10413 10414 10414 10414 10415 10415 10416 10416 10416 10417 10417 10418 10419 10419 10420 10420 10421 10421 10421 10421 10421 10422
10357 10358 10359 10359 10360 10361 10361 10362 10362 10362 10362 10364 10364 10365 10365 10365 10365 10366 10367 10367 10368 10369 10371 10372 10373 10374 10375 10376 10378 10379 10381 10381 10381 10381 10383 10383 10384 10386 10389 10389 10389 10389 10391 10392 10392 10392 10393 10394 10394 10395 10396 10396 10397 10398 10399 10401 10402 10402 10404 10404 10406 10406 10407 10407 10408 10408 10409 10409 10409 10410 10410 10411 10411 10411 10412 10412 10413 10414 10414 10415 10415 10416 10416 10416 10416 10416
10347 10348 10349 10350 10351 10351 10352 10353 10353 10353 10353 10354 10355 10355 10356 10357 10358 10359 10359 10359 10360 10361 10362 10363 10365 10367 10368 10369 10369 10371 10374 10374 10373 10373 10376 10377 10377 10379 10382 10383 10383 10383 10384 10385 10385 10386 10386 10386 10387 10387 10388 10389 10391 10392 10393 10394 10396 10397 10397 10399 10399 10401 10401 10402 10402 10402 10403 10403 10404 10404 10404 10405 10405 10406 10406 10407 10407 10408 10409 10409 10409 10410 10411 10411 10411 10411
10336 10337 10339 10340 10340 10341 10342 10343 10343 10343 10344 10344 10344 10346 10347 10349 10349 10351 10351 10351 10352 10352 10354 10354 10356 10359 10361 10362 10362 10363 10366 10366 10365 10365 10368 10369 10371 10372 10376 10377 10376 10376 10377 10377 10377 10377 10378 10379 10379 10380 10381 10382 10383 10384 10386 10387 10389 10391 10391 10392 10394 10394 10395 10396 10396 10396 10397 10397 10398 10398 10399 10399 10399 10400 10401 10401 10401 10402 10402 10403 10404 10404 10404 10405 10405 10405
10326 10326 10328 10329 10330 10331 10332 10332 10333 10334 10334 10334 10334 10336 10338 10339 10340 10342 10342 10342 10343 10344 10345 10346 10347 10349 10352 10353 10354 10355 10358 10359 10358 10357 10359 10361 10363 10365 10368 10370 10369 10368 10369 10370 10370 10370 10371 10371 10371 10372 10374 10375 10376 10377 10379 10381 10382 10384 10384 10386 10387 10388 10389 10389 10389 10390 10391 10391 10392 10392 10392 10393 10393 10394 10394 10395 10396 10396 10397 10397 10398 10399 10399 10399 10399 10399
10315 10316 10316 10317 10319 10321 10321 10321 10322 10324 10324 10324 10324 10326 10328 10329 10331 10332 10332 10334 10335 10336 10336 10337 10339 10340 10342 10345 10346 10346 10349 10352 10351 10349 10349 10352 10354 10357 10360 10362 10362 10361 10361 10361 10362 10362 10363 10363 10364 10365 10366 10367 10369 10370 10372 10373 10375 10376 10377 10379 10380 10381 10382 10382 10383 10384 10384 10385 10386 10386 10386 10387 10387 10387 10388 10389 10389 10390 10391 10392 10392 10392 10393 10393 10393 10394
10305 10305 10305 10306 10309 10310 10309 10309 10311 10312 10313 10314 10314 10316 10317 10319 10321 10322 10323 10325 10327 10327 10327 10327 10329 10331 10334 10336 10337 10337 10341 10344 10343 10341 10341 10344 10346 10347 10351 10354 10354 10353 10352 10352 10354 10355 10356 10356 10356 10357 10359 10360 10361 10362 10364 10366 10367 10369 10371 10372 10373 10374 10375 10376 10376 10377 10377 10378 10379 10380 10380 10381 10381 10381 10382 10382 10383 10384 10385 10386 10386 10387 10387 10387 10388 10388
10294 10295 10295 10296 10297 10298 10298 10299 10300 10301 10302 10302 10304 10304 10306 10308 10311 10312 10312 10315 10317 10318 10319 10319 10321 10322 10325 10327 10327 10329 10332 10334 10334 10334 10334 10335 10336 10337 10342 10346 10346 10344 10343 10344 10346 10347 10348 10349 10349 10351 10352 10353 10354 10355 10357 10359 10361 10362 10363 10364 10366 10367 10368 10369 10369 10370 10371 10372 10372 10373 10374 10374 10375 10375 10376 10376 10377 10377 10379 10379 10380 10381 10382 10382 10382 10382
10283 10284 10285 10286 10286 10287 10287 10288 10289 10289 10291 10291 10292 10294 10295 10297 10299 10301 10302 10304 10306 10307 10308 10309 10311 10313 10315 10317 10319 10321 10321 10323 10325 10326 10326 10326 10326 10328 10333 10337 10337 10335 10334 10334 10337 10339 10340 10341 10342 10343 10345 10346 10346 10347 10349 10351 10353 10354 10356 10357 10359 10360 10361 10362 10362 10363 10364 10365 10366 10367 10367 10368 10369 10369 10369 10370 10371 10371 10372 10373 10374 10375 10376 10376 10377 10377
10271 10272 10274 10274 10275 10276 10277 10277 10277 10278 10279 10280 10281 10282 10284 10286 10288 10290 10291 10294 10295 10297 10297 10299 10301 10302 10304 10307 10310 10311 10311 10313 10316 10317 10317 10317 10317 10320 10324 10327 10328 10326 10324 10325 10328 10331 10332 10332 10334 10336 10337 10338 10339 10340 10342 10344 10346 10347 10349 10350 10352 10353 10354 10355 10356 10357 10357 10358 10359 10361 10361 10362 10362 10363 10363 10364 10364 10366 10366 10367 10368 10369 10370 10371 10371 10372
10257 10259 10261 10262 10264 10264 10265 10266 10266 10267 10268 10269 10270 10271 10272 10274 10276 10278 10281 10282 10283 10285 10287 10289 10289 10291 10292 10297 10300 10301 10301 10302 10306 10308 10308 10308 10309 10311 10314 10317 10319 10318 10315 10316 10319 10322 10324 10324 10326 10327 10329 10330 10331 10332 10334 10336 10337 10340 10341 10343 10344 10346 10347 10348 10349 10350 10351 10352 10353 10354 10355 10356 10356 10357 10357 10357 10358 10359 10360 10361 10362 10363 10364 10365 10366 10366
10244 10246 10247 10249 10251 10252 10253 10254 10254 10256 10256 10257 10259 10260 10261 10263 10265 10267 10269 10269 10271 10273 10276 10277 10278 10279 10282 10286 10289 10290 10290 10293 10296 10297 10298 10299 10301 10302 10304 10307 10310 10309 10307 10306 10309 10312 10315 10316 10317 10319 10321 10322 10322 10324 10326 10327 10329 10332 10334 10336 10337 10339 10340 10341 10342 10343 10344 10345 10346 10347 10348 10349 10350 10350 10351 10351 10352 10353 10354 10354 10356 10357 10358 10359 10360 10361
10230 10232 10234 10236 10238 10239 10241 10241 10242 10244 10245 10246 10247 10248 10249 10251 10254 10255 10255 10256 10258 10262 10265 10265 10266 10267 10272 10275 10277 10279 10281 10284 10286 10287 10288 10291 10292 10292 10294 10298 10301 10301 10298 10297 10299 10302 10306 10307 10309 10311 10312 10314 10314 10316 10317 10319 10321 10324 10326 10327 10329 10331 10332 10334 10335 10336 10337 10338 10339 10341 10342 10342 10343 10344 10344 10345 10346 10347 10347 10348 10349 10351 10352 10353 10354 10354
10217 10218 10221 10222 10224 10226 10227 10229 10230 10231 10232 10233 10234 10236 10237 10240 10242 10243 10242 10243 10246 10250 10252 10252 10252 10256 10261 10264 10266 10267 10271 10273 10275 10277 10279 10282 10281 10281 10282 10288 10292 10291 10288 10288 10290 10293 10296 10297 10300 10302 10304 10305 10306 10307 10309 10311 10313 10316 10317 10319 10321 10324 10325 10327 10328 10329 10330 10331 10332 10334 10334 10336 10337 10337 10338 10339 10340 10341 10341 10342 10343 10344 10346 10347 10348 10349
10204 10205 10207 10209 10211 10212 10213 10215 10217 10219 10220 10221 10222 10223 10224 10227 10229 10231 10231 10232 10234 10237 10239 10239 10241 10244 10249 10252 10254 10256 10258 10261 10263 10267 10271 10272 10270 10268 10271 10277 10281 10280 10279 10281 10282 10284 10284 10287 10291 10294 10296 10296 10297 10299 10300 10302 10304 10306 10309 10311 10313 10316 10317 10319 10321 10322 10323 10324 10325 10326 10327 10329 10330 10331 10332 10332 10334 10334 10335 10336 10337 10338 10339 10341 10342 10342
10190 10191 10193 10195 10197 10198 10199 10202 10204 10206 10207 10208 10209 10210 10211 10212 10216 10218 10220 10220 10221 10223 10225 10227 10229 10233 10237 10241 10243 10244 10246 10247 10252 10257 10262 10262 10259 10256 10259 10266 10269 10269 10268 10272 10274 10274 10274 10276 10281 10285 10287 10288 10289 10289 10291 10292 10295 10297 10300 10302 10305 10307 10309 10311 10312 10314 10316 10317 10318 10319 10321 10322 10323 10324 10326 10326 10327 10328 10329 10330 10331 10332 10333 10334 10336 10336
10176 10177 10179 10181 10183 10184 10186 10187 10190 10191 10192 10194 10195 10196 10197 10199 10201 10204 10206 10207 10208 10209 10212 10214 10217 10221 10224 10228 10231 10233 10234 10236 10241 10246 10251 10251 10247 10245 10248 10255 10257 10257 10257 10262 10265 10266 10265 10266 10270 10274 10277 10279 10279 10280 10282 10284 10286 10288 10291 10293 10296 10298 10300 10302 10305 10306 10307 10309 10311 10312 10314 10315 10316 10317 10319 10320 10321 10322 10322 10323 10324 10326 10327 10328 10329 10330
10161 10164 10166 10167 10169 10170 10171 10174 10176 10177 10178 10180 10181 10182 10184 10185 10187 10189 10191 10193 10195 10197 10199 10202 10204 10207 10211 10215 10219 10221 10223 10226 10229 10234 10238 10239 10237 10236 10237 10242 10246 10247 10247 10251 10254 10256 10256 10258 10260 10263 10266 10268 10269 10271 10272 10275 10277 10279 10281 10284 10286 10289 10291 10294 10297 10298 10299 10302 10304 10305 10306 10307 10309 10311 10312 10314 10314 10315 10316 10317 10317 10319 10320 10322 10323 10324
10148 10150 10152 10154 10155 10156 10157 10159 10161 10163 10164 10166 10167 10169 10170 10171 10173 10175 10177 10179 10181 10184 10186 10189 10192 10195 10198 10202 10206 10209 10212 10214 10217 10222 10226 10228 10227 10226 10226 10231 10234 10237 10237 10239 10242 10244 10247 10249 10251 10253 10256 10257 10259 10261 10264 10266 10267 10269 10272 10275 10277 10279 10282 10285 10287 10290 10291 10294 10296 10297 10299 10301 10302 10304 10306 10307 10307 10308 10309 10310 10311 10312 10314 10316 10317 10319
10135 10137 10139 10140 10141 10142 10144 10146 10147 10149 10151 10152 10154 10155 10156 10157 10159 10161 10163 10165 10167 10171 10173 10177 10180 10183 10187 10191 10194 10197 10199 10201 10205 10209 10214 10217 10217 10216 10216 10219 10222 10225 10227 10229 10231 10233 10236 10239 10241 10243 10245 10246 10248 10251 10254 10256 10258 10261 10263 10266 10268 10270 10272 10276 10279 10281 10282 10285 10287 10289 10291 10292 10295 10297 10298 10299 10301 10301 10302 10303 10304 10306 10307 10309 10311 10312
10122 10124 10125 10126 10127 10129 10131 10132 10133 10135 10136 10138 10139 10141 10142 10144 10146 10149 10151 10152 10155 10158 10161 10164 10167 10171 10175 10179 10182 10185 10187 10189 10192 10197 10201 10204 10206 10206 10206 10208 10210 10213 10216 10219 10220 10222 10225 10227 10230 10232 10235 10236 10237 10239 10242 10246 10249 10252 10254 10256 10258 10261 10264 10266 10269 10272 10274 10276 10278 10280 10282 10284 10287 10289 10290 10292 10293 10294 10296 10296 10297 10299 10301 10303 10305 10306
10110 10111 10112 10113 10114 10116 10117 10119 10120 10121 10122 10124 10126 10128 10130 10132 10134 10136 10139 10141 10144 10146 10149 10151 10154 10158 10161 10166 10169 10172 10174 10177 10180 10184 10187 10191 10192 10194 10196 10197 10199 10201 10205 10208 10210 10211 10214 10217 10219 10221 10224 10226 10227 10229 10231 10236 10240 10242 10244 10246 10248 10252 10255 10257 10261 10263 10266 10267 10269 10271 10274 10276 10279 10281 10282 10284 10286 10287 10289 10290 10291 10292 10294 10296 10298 10300
10099 10100 10101 10101 10102 10104 10104 10106 10107 10108 10110 10112 10114 10116 10117 10120 10122 10125 10127 10129 10131 10134 10136 10138 10141 10144 10147 10151 10156 10159 10162 10165 10167 10171 10174 10176 10179 10181 10184 10185 10187 10190 10194 10197 10199 10201 10203 10206 10208 10209 10211 10214 10217 10219 10222 10226 10229 10232 10233 10236 10239 10242 10246 10248 10251 10254 10257 10258 10260 10262 10266 10268 10271 10272 10274 10276 10279 10281 10282 10283 10284 10286 10288 10290 10291 10293
10087 10089 10089 10090 10091 10091 10092 10093 10094 10096 10098 10101 10102 10104 10106 10108 10111 10112 10115 10117 10119 10121 10123 10126 10127 10131 10134 10137 10142 10146 10149 10152 10154 10157 10161 10164 10166 10169 10171 10173 10175 10177 10181 10185 10188 10191 10192 10194 10196 10198 10200 10203 10206 10209 10211 10215 10218 10221 10223 10226 10230 10234 10236 10238 10241 10245 10247 10249 10252 10254 10257 10260 10262 10265 10267 10268 10271 10273 10274 10276 10277 10279 10281 10282 10284 10286
10076 10077 10078 10079 10079 10080 10081 10082 10084 10086 10087 10089 10091 10092 10094 10096 10098 10100 10102 10104 10106 10109 10111 10113 10116 10118 10121 10124 10128 10132 10135 10139 10141 10144 10147 10151 10154 10156 10159 10161 10164 10166 10169 10173 10176 10179 10181 10182 10184 10187 10191 10194 10196 10198 10201 10204 10207 10210 10214 10217 10221 10222 10224 10228 10232 10236 10238 10241 10243 10246 10248 10251 10254 10257 10259 10261 10262 10265 10267 10268 10270 10272 10274 10276 10277 10279
10067 10067 10067 10068 10069 10070 10071 10072 10073 10075 10076 10078 10079 10081 10082 10084 10086 10088 10090 10092 10095 10097 10099 10102 10104 10106 10109 10112 10116 10119 10122 10126 10129 10132 10136 10139 10141 10144 10147 10151 10153 10156 10159 10162 10164 10167 10169 10171 10174 10177 10180 10183 10186 10187 10190 10192 10196 10199 10203 10207 10210 10211 10214 10219 10224 10227 10229 10231 10234 10237 10239 10242 10246 10249 10251 10252 10255 10257 10259 10261 10263 10264 10266 10269 10271 10273
10057 10057 10058 10059 10059 10060 10061 10062 10063 10064 10066 10067 10069 10070 10072 10074 10076 10077 10079 10082 10084 10086 10089 10091 10093 10096 10098 10101 10104 10108 10112 10115 10118 10121 10124 10127 10130 10133 10136 10139 10142 10145 10147 10151 10152 10155 10157 10161 10163 10166 10169 10172 10174 10177 10179 10182 10184 10188 10192 10196 10199 10202 10206 10210 10213 10216 10219 10222 10225 10228 10231 10234 10237 10240 10242 10245 10247 10249 10252 10254 10256 10257 10259 10261 10264 10266
10048 10049 10049 10049 10050 10051 10051 10052 10053 10054 10056 10057 10058 10060 10062 10064 10066 10067 10070 10072 10074 10076 10079 10081 10084 10086 10088 10091 10094 10097 10101 10104 10107 10110 10112 10115 10118 10121 10124 10127 10130 10133 10136 10139 10141 10143 10146 10149 10152 10155 10157 10161 10164 10167 10169 10171 10173 10177 10181 10185 10189 10194 10197 10199 10202 10206 10210 10214 10216 10219 10222 10226 10229 10231 10234 10237 10239 10242 10244 10246 10248 10250 10252 10254 10257 10259
10039 10040 10040 10040 10041 10041 10042 10043 10044 10045 10046 10048 10049 10051 10052 10054 10056 10059 10061 10063 10065 10067 10070 10072 10075 10077 10079 10082 10084 10087 10091 10094 10096 10099 10101 10104 10106 10109 10112 10116 10118 10121 10124 10127 10130 10132 10134 10138 10141 10144 10146 10149 10153 10156 10158 10160 10162 10166 10169 10174 10179 10183 10187 10189 10192 10197 10202 10205 10207 10210 10214 10217 10220 10223 10226 10229 10231 10234 10236 10238 10241 10242 10245 10247 10250 10252
10032 10032 10032 10032 10033 10033 10034 10035 10036 10037 10039 10040 10041 10042 10044 10046 10048 10051 10053 10055 10057 10059 10062 10064 10066 10068 10070 10072 10076 10078 10081 10083 10086 10087 10090 10093 10096 10099 10101 10104 10107 10110 10113 10116 10119 10122 10124 10127 10129 10132 10135 10139 10142 10146 10147 10149 10152 10155 10159 10162 10168 10173 10177 10180 10184 10188 10192 10194 10197 10201 10205 10208 10212 10216 10219 10221 10223 10226 10228 10231 10233 10236 10237 10240 10243 10246
10024 10024 10024 10024 10025 10026 10026 10027 10029 10030 10031 10032 10033 10034 10036 10037 10039 10042 10044 10047 10049 10050 10052 10054 10057 10059 10061 10064 10066 10069 10071 10072 10074 10077 10080 10082 10086 10088 10091 10094 10096 10099 10102 10106 10109 10112 10114 10116 10119 10122 10125 10129 10132 10134 10136 10139 10142 10146 10149 10152 10157 10163 10168 10171 10175 10179 10182 10185 10188 10192 10196 10200 10204 10207 10210 10212 10214 10218 10221 10224 10226 10228 10231 10233 10236 10239
10015 10016 10016 10017 10018 10019 10020 10021 10022 10023 10024 10024 10026 10027 10028 10029 10031 10033 10035 10037 10039 10042 10044 10046 10048 10051 10052 10055 10057 10060 10061 10062 10065 10067 10071 10073 10076 10078 10081 10084 10086 10089 10092 10096 10099 10102 10104 10106 10109 10112 10115 10119 10121 10124 10127 10131 10134 10137 10139 10142 10148 10154 10158 10162 10165 10169 10173 10176 10180 10183 10187 10192 10196 10198 10201 10203 10207 10211 10214 10216 10219 10221 10223 10226 10229 10232
10008 10009 10009 10010 10011 10012 10013 10014 10015 10016 10016 10017 10018 10019 10020 10021 10023 10025 10027 10029 10031 10034 10036 10037 10040 10042 10044 10046 10049 10051 10052 10054 10056 10059 10062 10064 10066 10069 10071 10074 10077 10080 10083 10086 10089 10092 10095 10097 10100 10102 10106 10109 10112 10115 10118 10122 10126 10127 10130 10134 10139 10144 10149 10152 10156 10161 10165 10168 10171 10174 10178 10182 10186 10188 10191 10196 10200 10204 10206 10208 10211 10214 10216 10219 10222 10225
10001 10002 10002 10004 10004 10005 10006 10007 10007 10008 10009 10009 10011 10011 10012 10014 10016 10017 10019 10021 10024 10026 10028 10030 10032 10034 10036 10038 10040 10042 10044 10046 10048 10050 10053 10055 10057 10060 10062 10065 10068 10071 10074 10077 10081 10083 10086 10088 10091 10094 10097 10101 10104 10106 10110 10113 10116 10119 10122 10126 10130 10135 10139 10143 10147 10152 10156 10159 10162 10166 10170 10174 10176 10180 10184 10189 10192 10195 10197 10201 10204 10207 10209 10212 10215 10218
9995 9996 9996 9997 9997 9998 9999 10000 10001 10001 10002 10002 10003 10004 10006 10007 10009 10010 10012 10014 10016 10018 10020 10022 10024 10026 10028 10030 10032 10034 10036 10038 10040 10042 10044 10047 10049 10052 10054 10057 10060 10063 10066 10069 10072 10074 10077 10080 10083 10086 10089 10092 10096 10099 10101 10105 10108 10111 10114 10117 10121 10126 10131 10134 10139 10143 10147 10151 10154 10158 10162 10166 10169 10172 10177 10181 10183 10186 10190 10194 10197 10199 10201 10204 10208 10211
9989 9990 9990 9991 9991 9992 9992 9993 9994 9994 9995 9996 9997 9997 9999 10000 10002 10003 10005 10007 10009 10011 10012 10015 10017 10019 10021 10022 10024 10026 10028 10031 10032 10034 10036 10039 10041 10044 10046 10049 10052 10055 10058 10061 10063 10066 10069 10072 10075 10078 10082 10085 10088 10091 10094 10097 10100 10103 10106 10109 10113 10118 10122 10126 10131 10134 10139 10142 10146 10150 10154 10157 10161 10164 10168 10172 10175 10179 10182 10186 10189 10191 10194 10197 10201 10204